Tracking 18673 objects as of 28-June-2017
HD Live streaming from Space Station
objects crossing your sky now

BREEZE-M DEB

Track BREEZE-M DEB now!
10-day predictions


NORAD ID: 34259
Int'l Code: 2006-006CA
Perigee: 1,154.2 km
Apogee: 14,694.7 km
Inclination: 50.9 °
Period: 283.5 minutes
Semi major axis: 14295 km
RCS: 0.2413 m2 (medium)
Launch date: February 28, 2006
Source: Commonwealth of Independent States (former USSR) (CIS)
Launch site: TYURATAM MISSILE AND SPACE COMPLEX (TTMTR)

Note: This is SATELLITE DEBRIS
Your satellite tracking list
Your tracking list is empty





NASA's NSSDC Master Catalog

Two Line Element Set (TLE):
1 34259U 06006CA  17177.71851679 -.00000057 +00000-0 +00000-0 0  9995
2 34259 050.9369 350.3054 4735935 277.0638 033.2846 05.07932638210952
Source of the keplerian elements: AFSPC